User: anonymous   Login
Location: Unspecified
(0.0000°N, 0.0000°E)
Time: 15:34:42
(UTC+01:00)
Language:

Cosmos 2237 Rocket - Orbit

View from above orbital plane
View from above orbital plane
View from above satellite
View from above satellite

Ground track
Ground track

The orbit data is extracted from the following two-line orbital elements,

1 22566U 93016B   16344.46077284  .00000149  00000-0  10163-3 0  9994
2 22566  71.0072 105.1705 0008450  55.8796 304.3127 14.14938622224431
Epoch (UTC): 09 December 2016 11:03:30
Eccentricity: 0.0008450
inclination: 71.0072°
perigee height: 836 km
apogee height: 848 km
right ascension of ascending node: 105.1705°
argument of perigee: 55.8796°
revolutions per day: 14.14938622
mean anomaly at epoch: 304.3127°
orbit number at epoch: 22443

The dashed part of the orbit path shows where the satellite is in the earth's shadow,  

DLR